Marion, IN

3:48 AM EDT on August 26, 2016 (GMT -0400)
Marion Municipal

Weather History for KMZZ - June, 2012

Change the Weather History Date:

Saturday, June 23, 2012

  Actual Average (KMIE) Record (KMIE)
Temperature  
Mean Temperature 68 °F 74 °F  
Max Temperature 82 °F 84 °F 99 °F (1988)
Min Temperature 55 °F 64 °F 44 °F (1992)
Degree Days  
Heating Degree Days 0 0  
Month to date heating degree days 21  
Since 1 June heating degree days 21  
Since 1 July heating degree days 5780  
Cooling Degree Days 4 9  
Month to date cooling degree days 150  
Year to date cooling degree days 233  
Since 1 June cooling degree days 150  
Growing Degree Days 18 (Base 50)    
Moisture  
Dew Point 53 °F    
Average Humidity 59    
Maximum Humidity 89    
Minimum Humidity 26    
Precipitation  
Precipitation 0.00 in 0.15 in 1.29 in (1969)
Month to date precipitation 3.58  
Year to date precipitation 19.15  
Sea Level Pressure  
Sea Level Pressure 30.03 in    
Wind  
Wind Speed 0 mph (WNW)    
Max Wind Speed 6 mph    
Max Gust Speed -    
Visibility 9 miles    
Events      
T = Trace of Precipitation, MM = Missing Value Source: NWS Daily Summary

Daily Weather History Graph

Daily Weather History Graph

Search for Another Location

Airport or City:

Trip Planner

Search our weather history database for the weather conditions in past years. The results will help you decide how hot, cold, wet, or windy it might be!

Date:

Astronomy

Jun. 23, 2012 Rise Set
Actual Time 6:13 AM EDT 9:17 PM EDT
Civil Twilight 5:39 AM EDT 9:50 PM EDT
Nautical Twilight 4:57 AM EDT 10:32 PM EDT
Astronomical Twilight 4:07 AM EDT 11:22 PM EDT
Moon 10:15 AM EDT (6/23) 11:43 PM EDT (6/23)
Length of Visible Light 16h 10m
Length of Day
15h 04m
Waxing Crescent, 16% of the Moon is Illuminated
Jun 23
Waxing Crescent
Jun 26
First Quarter
Jul 3
Full
Jul 10
Last Quarter
Jul 19
New

Hourly Weather History & Observations

Time (EDT) Temp. Dew Point Humidity Pressure Visibility Wind Dir Wind Speed Gust Speed Precip Events Conditions
12:15 AM 64.0 °F 52.9 °F 67% 30.00 in 10.0 mi Calm Calm - N/A   Clear
12:35 AM 62.2 °F 53.2 °F 72% 30.00 in 10.0 mi Calm Calm - N/A   Clear
12:55 AM 60.3 °F 54.3 °F 81% 30.00 in 10.0 mi Calm Calm - N/A   Clear
1:15 AM 59.2 °F 54.5 °F 84% 30.00 in 10.0 mi Calm Calm - N/A   Clear
1:35 AM 60.4 °F 53.4 °F 78% 30.00 in 10.0 mi Calm Calm - N/A   Clear
1:55 AM 59.7 °F 53.1 °F 79% 30.00 in 10.0 mi Calm Calm - N/A   Clear
2:15 AM 57.9 °F 53.4 °F 85% 30.00 in 10.0 mi West 3.5 mph - N/A   Clear
2:35 AM 56.5 °F 52.9 °F 88% 30.01 in 10.0 mi Calm Calm - N/A   Clear
2:55 AM 56.8 °F 53.1 °F 87% 30.01 in 10.0 mi Calm Calm - N/A   Clear
3:15 AM 56.8 °F 52.9 °F 87% 30.01 in 10.0 mi Calm Calm - N/A   Clear
3:35 AM 56.1 °F 52.2 °F 87% 30.01 in 10.0 mi Calm Calm - N/A   Clear
3:55 AM 56.8 °F 52.3 °F 85% 30.01 in 10.0 mi Calm Calm - N/A   Clear
4:15 AM 57.2 °F 51.8 °F 82% 30.02 in 10.0 mi Calm Calm - N/A   Clear
4:35 AM 57.4 °F 51.8 °F 82% 30.02 in 10.0 mi Calm Calm - N/A   Clear
4:55 AM 57.0 °F 51.6 °F 82% 30.02 in 10.0 mi Calm Calm - N/A   Clear
5:15 AM 57.4 °F 51.3 °F 80% 30.02 in 10.0 mi Calm Calm - N/A   Clear
6:15 AM 56.3 °F 51.3 °F 83% 30.02 in 10.0 mi Calm Calm - N/A   Clear
6:55 AM 55.0 °F 52.0 °F 89% 30.04 in 10.0 mi Calm Calm - N/A   Clear
7:15 AM 56.7 °F 53.1 °F 88% 30.03 in 10.0 mi Calm Calm - N/A   Clear
7:35 AM 58.3 °F 54.3 °F 87% 30.04 in 10.0 mi Calm Calm - N/A   Clear
7:55 AM 59.9 °F 55.2 °F 84% 30.04 in 10.0 mi Calm Calm - N/A   Clear
8:15 AM 62.4 °F 55.8 °F 79% 30.04 in 10.0 mi Calm Calm - N/A   Clear
8:35 AM 65.3 °F 54.9 °F 69% 30.04 in 10.0 mi Calm Calm - N/A   Clear
8:55 AM 67.1 °F 55.8 °F 67% 30.04 in 10.0 mi Calm Calm - N/A   Clear
9:15 AM 68.9 °F 57.0 °F 66% 30.05 in 10.0 mi Calm Calm - N/A   Clear
9:55 AM 72.1 °F 57.9 °F 61% 30.06 in 10.0 mi Calm Calm - N/A   Clear
10:15 AM 74.1 °F 56.7 °F 54% 30.06 in 10.0 mi SSE 3.5 mph - N/A   Clear
10:35 AM 75.2 °F 56.1 °F 51% 30.05 in 10.0 mi Calm Calm - N/A   Clear
10:55 AM 76.3 °F 54.5 °F 47% 30.06 in 10.0 mi Calm Calm - N/A   Clear
11:15 AM 77.0 °F 52.3 °F 42% 30.06 in 10.0 mi Calm Calm - N/A   Clear
11:35 AM 77.7 °F 48.6 °F 36% 30.06 in 10.0 mi Calm Calm - N/A   Clear
12:15 PM 78.6 °F 49.6 °F 36% 30.07 in 10.0 mi Calm Calm - N/A   Clear
12:35 PM 79.2 °F 49.3 °F 35% 30.06 in 10.0 mi Calm Calm - N/A   Clear
12:55 PM 79.7 °F 49.6 °F 35% 30.07 in 10.0 mi NW 4.6 mph - N/A   Clear
1:15 PM 80.1 °F 49.5 °F 34% 30.07 in 10.0 mi WNW 3.5 mph - N/A   Clear
1:35 PM 80.4 °F 49.3 °F 34% 30.07 in 10.0 mi NW 3.5 mph - N/A   Clear
1:55 PM 81.0 °F 50.5 °F 35% 30.06 in 10.0 mi Calm Calm - N/A   Clear
2:15 PM 81.0 °F 49.8 °F 34% 30.06 in 10.0 mi West 3.5 mph - N/A   Clear
2:35 PM 81.0 °F 47.1 °F 30% 30.06 in 10.0 mi Calm Calm - N/A   Scattered Clouds
2:55 PM 81.7 °F 47.8 °F 31% 30.05 in 10.0 mi East 5.8 mph - N/A   Scattered Clouds
3:15 PM 82.0 °F 48.0 °F 30% 30.05 in 10.0 mi Calm Calm - N/A   Clear
3:35 PM 82.0 °F 46.6 °F 29% 30.05 in 10.0 mi West 4.6 mph - N/A   Clear
3:55 PM 82.4 °F 44.2 °F 26% 30.05 in 10.0 mi Calm Calm - N/A   Clear
4:35 PM 81.7 °F 45.7 °F 28% 30.04 in 7.0 mi Calm Calm - N/A   Clear
4:55 PM 81.3 °F 46.6 °F 29% 30.04 in 7.0 mi West 4.6 mph - N/A   Clear
5:15 PM 81.9 °F 48.0 °F 31% 30.04 in 7.0 mi Calm Calm - N/A   Clear
5:35 PM 81.9 °F 46.8 °F 29% 30.03 in 10.0 mi Calm Calm - N/A   Clear
5:55 PM 81.1 °F 50.7 °F 35% 30.03 in 7.0 mi Calm Calm - N/A   Clear
6:15 PM 80.6 °F 50.7 °F 35% 30.02 in 7.0 mi Calm Calm - N/A   Clear
6:35 PM 80.8 °F 49.5 °F 33% 30.01 in 10.0 mi Calm Calm - N/A   Clear
6:55 PM 80.6 °F 49.6 °F 34% 30.01 in 7.0 mi Calm Calm - N/A   Clear
7:15 PM 80.1 °F 51.8 °F 37% 30.01 in 7.0 mi Calm Calm - N/A   Clear
7:55 PM 79.2 °F 54.3 °F 42% 30.01 in 10.0 mi Calm Calm - N/A   Clear
8:15 PM 78.4 °F 54.1 °F 43% 30.02 in 10.0 mi Calm Calm - N/A   Clear
8:35 PM 77.0 °F 59.0 °F 54% 30.02 in 10.0 mi Calm Calm - N/A   Clear
8:55 PM 75.0 °F 62.6 °F 65% 30.03 in 7.0 mi NW 3.5 mph - N/A   Clear
9:15 PM 74.3 °F 59.4 °F 60% 30.03 in 7.0 mi Calm Calm - N/A   Clear
9:35 PM 74.5 °F 58.6 °F 58% 30.03 in 7.0 mi Calm Calm - N/A   Clear
9:55 PM 73.0 °F 61.3 °F 67% 30.03 in 10.0 mi Calm Calm - N/A   Clear
10:15 PM 72.7 °F 61.9 °F 69% 30.04 in 10.0 mi Calm Calm - N/A   Clear
10:35 PM 71.1 °F 62.1 °F 73% 30.04 in 7.0 mi Calm Calm - N/A   Clear
10:55 PM 70.9 °F 61.9 °F 73% 30.04 in 7.0 mi Calm Calm - N/A   Clear
11:15 PM 70.3 °F 61.5 °F 74% 30.04 in 10.0 mi Calm Calm - N/A   Clear
11:35 PM 70.3 °F 61.5 °F 74% 30.04 in 7.0 mi Calm Calm - N/A   Clear
11:55 PM 69.4 °F 61.3 °F 75% 30.05 in 7.0 mi Calm Calm - N/A   Clear